Starlink 11432

operational
NORAD ID: 62882 Int'l Des: 2025-024 Owner: SPXS Country: US Constellation: starlink
LEOCIRCULAR

About Starlink 11432

Description loading...

Live Position

Loading 3D Globe...

Upcoming Passes

Altitude History

Altitude vs Time

uPlot chart will show altitude changes over time

Two-Line Element Set

1 62882U 25024D 25259.40503988 .00310515 00000-0 22986-2 0 9993
2 62882 43.0009 152.2119 0002754 326.1730 33.8961 15.71204819 36057
Epoch: Sep 16, 2025 • Age: 13 hours

Current Status

Altitude 357.9 km
Velocity 7.69 km/s
Sub-Earth Point -12.41°S, 4.9°E
Launch Date Feb 4, 2025
Age 0.6 years
Type internet

Technical Details

Classification Payload
Mass 960.00 kg
Dry Mass 910.00 kg
Total Mass 960.00 kg
Length 0.30 m
Diameter 4.10 m
Span 29.00 m
Shape Box + pan
Manufacturer SPXS
Bus Type Starlink V2MD
Phase Status In Orbit
Owner/State SPXS/US

Large Constellations

Loading constellations...